This is the latest recevied weather packets stored in our database for station/object KB4MOX. If no packets are shown the sender has not sent any weather packets the latest 10 day(s).
| Time | Temp. | Humidity | Pressure | Rain* | Wind** | Luminosity | Snow |
|---|---|---|---|---|---|---|---|
| 1778159617 | 19.44° C | 98% | 1011.2 hPa | 0 mm | - | 5 W/m² | - |
| 1778159314 | 19.44° C | 98% | 1011.2 hPa | 1.78 mm | - | 5 W/m² | - |
| 1778159011 | 19.44° C | 98% | 1011.2 hPa | 1.78 mm | - | 8 W/m² | - |
| 1778158710 | 19.44° C | 98% | 1011.1 hPa | 3.05 mm | - | 9 W/m² | - |
| 1778158407 | 19.44° C | 98% | 1010.9 hPa | 3.05 mm | - | 19 W/m² | - |
| 1778158104 | 19.44° C | 98% | 1011 hPa | 1.78 mm | - | 17 W/m² | - |
| 1778157800 | 19.44° C | 98% | 1011 hPa | 3.05 mm | - | 19 W/m² | - |
| 1778157499 | 19.44° C | 98% | 1010.9 hPa | 8.89 mm | - | 31 W/m² | - |
| 1778157196 | 19.44° C | 98% | 1011 hPa | 18.54 mm | - | 25 W/m² | - |
| 1778156892 | 19.44° C | 98% | 1011 hPa | 14.99 mm | - | 11 W/m² | - |
| 1778156588 | 19.44° C | 98% | 1011.3 hPa | 4.32 mm | - | 13 W/m² | - |
| 1778156284 | 19.44° C | 98% | 1010.8 hPa | 4.83 mm | - | 6 W/m² | - |
| 1778155980 | 19.44° C | 98% | 1010.8 hPa | 0 mm | - | 13 W/m² | - |
| 1778155676 | 19.44° C | 98% | 1010.7 hPa | 0 mm | - | 6 W/m² | - |
| 1778155373 | 19.44° C | 98% | 1010.6 hPa | 0 mm | - | 14 W/m² | - |
| 1778155069 | 19.44° C | 98% | 1010.5 hPa | 0 mm | - | 25 W/m² | - |
| 1778154765 | 19.44° C | 98% | 1010.6 hPa | 1.27 mm | - | 11 W/m² | - |
| 1778154461 | 19.44° C | 98% | 1010.4 hPa | 8.89 mm | - | 18 W/m² | - |
| 1778154158 | 19.44° C | 98% | 1010.6 hPa | 18.54 mm | - | 6 W/m² | - |
| 1778153856 | 19.44° C | 98% | 1010.3 hPa | 18.03 mm | - | 3 W/m² | - |
| 1778153552 | 18.89° C | 98% | 1010.6 hPa | 9.65 mm | - | 2 W/m² | - |
| 1778153250 | 18.89° C | 98% | 1010.8 hPa | 3.05 mm | - | 3 W/m² | - |
| 1778152947 | 18.89° C | 98% | 1010.6 hPa | 0 mm | - | 2 W/m² | - |
| 1778152644 | 18.89° C | 98% | 1010.3 hPa | 0 mm | - | 2 W/m² | - |
| 1778152341 | 18.89° C | 98% | 1009.2 hPa | 0 mm | - | 3 W/m² | - |
* Rain latest hour (hover to see other rain measurements)
** Current wind speed in m/s (hover to see current wind gust speed)